Location: Unspecified
(0.0000°N, 0.0000°E)
Time: 00:31:16
(UTC+00:00)

UNISAT 5 - Pass Details

Date: 16 June 2023
Orbit: 572 x 612 km, 97.5° (Epoch: 01 October)

Event Time Altitude Azimuth Distance (km) Brightness Sun altitude
Rises 03:22:27 0° 41° (NE) 2,764 ? -35.8°
Reaches altitude 10° 03:25:16 10° 62° (ENE) 1,869 ? -35.2°
Enters shadow 03:26:59 15° 87° (E) 1,550 ? -34.8°
